FW2966 Weather Reports


Display with metric or nautical units.
time (UTC)temp
F
wind
direction
speed
MPH
gust
MPH
rain 1hr
in
rain 24hr
in
rain mn
in
humidity
%
barometer
mb
20260510023044 51 0 0.0 0.0 0.00 0.34 0.34 94 1010.7
20260510021637 52 92 1.0 2.0 0.00 0.34 0.34 94 1010.6
20260510020043 52 0 0.0 0.0 0.00 0.34 0.34 94 1010.6
20260510014556 52 0 0.0 0.0 0.00 0.34 0.34 94 1010.5
20260510013057 52 0 0.0 0.0 0.00 0.34 0.34 94 1010.3
20260510011543 52 0 0.0 0.0 0.00 0.34 0.34 94 1010.2
20260510010056 53 0 0.0 0.0 0.00 0.34 0.34 94 1010.2
20260510004546 53 0 0.0 0.0 0.00 0.34 0.34 94 1010.2
20260510003044 53 0 0.0 0.0 0.00 0.34 0.34 94 1010.1
20260510001546 54 0 0.0 0.0 0.00 0.34 0.34 94 1010.1
20260510000050 54 0 0.0 0.0 0.00 0.34 0.34 94 1010.0
20260509234546 55 0 0.0 0.0 0.00 0.34 0.34 94 1010.0
20260509233050 55 0 0.0 0.0 0.00 0.34 0.34 94 1010.0
20260509231558 55 0 0.0 2.0 0.04 0.34 0.34 94 1010.2
20260509230048 55 0 1.0 5.0 0.07 0.34 0.34 94 1010.3
20260509224541 55 175 1.0 4.0 0.10 0.34 0.34 93 1010.4
20260509223041 55 161 2.0 12.0 0.12 0.34 0.34 93 1010.1
20260509221543 56 158 0.0 4.0 0.08 0.30 0.30 93 1011.1
20260509220047 56 11 4.0 9.0 0.05 0.27 0.27 93 1010.3
20260509214545 56 0 1.0 4.0 0.02 0.23 0.23 93 1011.2
20260509213104 56 146 2.0 4.0 0.02 0.22 0.22 92 1010.4
20260509211546 57 0 0.0 0.0 0.05 0.22 0.22 92 1010.9
20260509210049 57 0 0.0 0.0 0.06 0.22 0.22 92 1010.8
20260509204542 57 0 0.0 0.0 0.05 0.21 0.21 92 1011.1
20260509203045 56 0 0.0 2.0 0.04 0.20 0.20 91 1010.9
20260509201548 56 0 0.0 0.0 0.02 0.16 0.16 91 1011.1
20260509200047 56 0 0.0 5.0 0.06 0.16 0.16 91 1011.2
20260509194556 56 180 3.0 10.0 0.14 0.16 0.16 90 1011.2
20260509193047 57 165 1.0 3.0 0.16 0.16 0.16 90 1010.0
20260509191557 57 0 1.0 3.0 0.14 0.14 0.14 90 1011.5
20260509190050 58 343 2.0 6.0 0.09 0.09 0.09 88 1011.6
20260509184541 58 309 0.0 5.0 0.02 0.02 0.02 88 1011.5
20260509183054 58 15 2.0 4.0 0.00 0.00 0.00 87 1010.9
20260509181545 58 246 1.0 4.0 0.00 0.00 0.00 86 1011.1
20260509180053 57 141 2.0 6.0 0.00 0.00 0.00 86 1010.6
20260509174545 56 184 2.0 8.0 0.00 0.00 0.00 85 1010.6
20260509173055 56 192 5.0 10.0 0.00 0.00 0.00 82 1010.6
20260509171550 58 152 4.0 7.0 0.00 0.00 0.00 78 1010.6
20260509170047 60 152 3.0 7.0 0.00 0.00 0.00 78 1010.7
20260509164546 59 156 2.0 7.0 0.00 0.00 0.00 81 1010.7
20260509163044 59 143 2.0 5.0 0.00 0.00 0.00 79 1011.0
20260509161553 59 198 1.0 5.0 0.00 0.00 0.00 79 1011.3
20260509160042 58 183 1.0 5.0 0.00 0.00 0.00 80 1011.5
20260509154548 59 171 2.0 6.0 0.00 0.00 0.00 79 1011.7
20260509153054 59 202 1.0 4.0 0.00 0.00 0.00 79 1011.6
20260509151541 58 163 1.0 5.0 0.00 0.00 0.00 79 1011.6
20260509150044 58 199 1.0 4.0 0.00 0.00 0.00 80 1011.8
20260509144549 57 147 2.0 5.0 0.00 0.00 0.00 82 1011.7
20260509143043 57 151 2.0 5.0 0.00 0.00 0.00 83 1011.9
20260509141544 56 145 2.0 7.0 0.00 0.00 0.00 85 1011.6
20260509140055 55 148 3.0 5.0 0.00 0.00 0.00 85 1011.9
20260509134541 55 190 1.0 6.0 0.00 0.00 0.00 87 1011.9
20260509133048 54 113 3.0 8.0 0.00 0.00 0.00 88 1011.8
20260509131550 54 154 1.0 4.0 0.00 0.00 0.00 90 1012.1
20260509130046 53 164 1.0 5.0 0.00 0.00 0.00 90 1012.3
20260509124551 53 0 0.0 4.0 0.00 0.00 0.00 90 1012.4
20260509123046 53 125 2.0 5.0 0.00 0.00 0.00 90 1012.0
20260509121550 53 0 1.0 7.0 0.00 0.00 0.00 90 1012.5
20260509120046 53 146 2.0 4.0 0.00 0.00 0.00 90 1012.6
20260509114542 53 0 0.0 2.0 0.00 0.00 0.00 90 1012.5
20260509113048 52 164 0.0 4.0 0.00 0.00 0.00 89 1012.6
20260509111551 52 136 1.0 4.0 0.00 0.00 0.00 89 1012.5
20260509110046 52 138 3.0 5.0 0.00 0.00 0.00 89 1012.4
20260509104546 52 137 1.0 5.0 0.00 0.00 0.00 89 1012.4
20260509103051 52 151 1.0 4.0 0.00 0.00 0.00 88 1012.3
20260509101547 52 0 0.0 2.0 0.00 0.00 0.00 88 1012.1
20260509100048 52 140 1.0 3.0 0.00 0.00 0.00 88 1011.9
20260509094557 51 0 0.0 0.0 0.00 0.02 0.00 87 1012.0
20260509093048 51 0 0.0 0.0 0.00 0.02 0.00 87 1011.9
20260509091553 52 0 0.0 1.0 0.00 0.02 0.00 87 1011.8
20260509090054 52 0 0.0 2.0 0.00 0.02 0.00 87 1011.8
20260509084558 52 0 0.0 2.0 0.00 0.02 0.00 87 1011.9
20260509083052 52 149 1.0 3.0 0.00 0.02 0.00 87 1012.1
20260509081544 52 0 0.0 1.0 0.00 0.02 0.00 87 1012.4
20260509080048 52 0 0.0 1.0 0.00 0.02 0.00 86 1012.3
20260509074606 52 0 0.0 0.0 0.00 0.02 0.00 86 1012.1
20260509073101 52 0 0.0 0.0 0.00 0.02 0.00 85 1012.0
20260509071545 52 0 0.0 3.0 0.00 0.02 0.00 85 1011.9
20260509070048 52 0 1.0 4.0 0.00 0.02 0.00 85 1011.9
20260509064547 52 185 3.0 5.0 0.00 0.02 0.00 85 1012.1
20260509063055 52 166 0.0 2.0 0.00 0.02 0.00 84 1012.2
20260509061548 52 0 0.0 2.0 0.00 0.02 0.00 83 1012.5
20260509060101 52 0 0.0 0.0 0.00 0.02 0.00 82 1012.5
20260509054548 52 0 0.0 1.0 0.00 0.02 0.00 82 1012.6
20260509053057 52 27 1.0 3.0 0.00 0.02 0.00 80 1012.7
20260509051548 51 0 0.0 2.0 0.00 0.02 0.00 80 1012.8
20260509050053 51 350 1.0 2.0 0.00 0.02 0.00 79 1012.7
20260509044547 52 349 0.0 2.0 0.00 0.02 0.00 78 1012.5
20260509043051 52 0 0.0 2.0 0.00 0.02 0.00 77 1012.5
20260509041556 53 0 0.0 1.0 0.00 0.02 0.00 76 1012.4
20260509040057 54 0 0.0 1.0 0.00 0.02 0.00 74 1012.6
20260509034542 55 0 0.0 2.0 0.00 0.02 0.02 74 1012.7
20260509033106 55 284 0.0 2.0 0.00 0.02 0.02 74 1012.7
20260509031549 55 0 0.0 2.0 0.00 0.02 0.02 74 1012.8
20260509030039 55 275 0.0 3.0 0.00 0.02 0.02 74 1012.9
20260509024555 54 0 0.0 4.0 0.00 0.02 0.02 75 1012.9